Location: Newark
(25.0000°N, 73.5000°E)
Time: 20:00:39
(UTC+00:00)

X-37B - Pass Details

Date: 22 June 2021
Orbit: 383 x 392 km, 45.0° (Epoch: 01 July)

Event Time Altitude Azimuth Distance (km) Brightness Sun altitude
Rises 15:10:46 0° 234° (SW) 2,244 4.7 -14.8°
Reaches altitude 10° 15:12:50 10° 236° (WSW) 1,392 3.6 -15.2°
Maximum altitude 15:15:56 67° 319° (NW) 415 0.9 -15.8°
Drops below altitude 10° 15:19:04 10° 44° (NE) 1,395 3.3 -16.4°
Sets 15:21:08 0° 47° (NE) 2,249 4.3 -16.7°
Enters shadow 15:21:13 - 47° (NE) 2,285 4.4 -16.7°
